User: anonymous   Login
Location: Antioch Church
(34.9543°N, 88.5145°W)
Time: 08:29:33
(UTC+00:00)
Language:

STARLINK-1029 - Orbit

View from above orbital plane
View from above orbital plane
View from above satellite
View from above satellite

Ground track
Ground track

The orbit data is extracted from the following two-line orbital elements,

1 44734C 19074X   20058.18981412  .00008354  00000-0  99906-4 0   585
2 44734  53.0006   0.1446 0004608 331.1315 205.6925 15.60332426    10
Epoch (UTC): 27 February 2020 04:33:19
Eccentricity: 0.0004608
inclination: 53.0006°
perigee height: 383 km
apogee height: 390 km
right ascension of ascending node: 0.1446°
argument of perigee: 331.1315°
revolutions per day: 15.60332426
mean anomaly at epoch: 205.6925°
orbit number at epoch: 1

The dashed part of the orbit path shows where the satellite is in the earth's shadow,  

DLR